Flag for Czech Republic Weather past 2 weeks in Brno, Czech Republic

Now
38 °F

Passing clouds.


Feels Like: 33 °F
Forecast: 37 / 43 °F
Wind: 6 mph from West

Location: Brno / Turany

Current Time: Mar 31, 2015 at 4:04:09 AM

Latest Report: Mar 31, 2015 at 3:00 AM


Visibility: 19 mi

Pressure: 29.85 "Hg

Humidity: 69%

Dew point: 28 °F

Location of BrnoLocation

Historic Weather in Brno — Graph

°F

Brno temperature yesterday

Maximum temperature yesterday: 52 °F (at 11:00 AM)
Minimum temperature yesterday: 40 °F (at 10:00 PM)
Average temperature yesterday: 47 °F

Past Weeks' High & Low Weather Summary

 TemperatureHumidityPressure
High62 °F (Mar 25, 1:00 PM)95% (Mar 27, 1:00 AM)30.55 "Hg (Mar 27, 1:00 AM)
Low28 °F (Mar 23, 5:00 AM)29% (Mar 19, 3:00 PM)29.38 "Hg (Mar 30, 4:00 AM)
Average45 °F63%30.06 "Hg
* Reported Mar 16 1:00 AM — Mar 31 2:00 AM, Brno, Weather by CustomWeather, © 2015

Note: Actual official high and low records may vary slightly from our data, if they occured in-between our weather recording intervals... More about our weather records

Advertising

Brno weather history for previous 24 hours

 ConditionsComfort  
Time TempWeatherWind HumidityBarometerVisibility
2:00 AM
Tue, Mar 31
40 °FPassing clouds.6 mph59%29.84 "Hg19 mi
1:00 AM41 °FPassing clouds.8 mph60%29.83 "Hg19 mi
12:00 AM40 °FPassing clouds.3 mph64%29.81 "Hg19 mi
11:00 PM
Mon, Mar 30
42 °FPassing clouds.8 mph58%29.78 "Hg19 mi
10:00 PM40 °FPassing clouds.5 mph69%29.76 "Hg22 mi
9:00 PM41 °FPassing clouds.5 mph68%29.73 "Hg25 mi
8:00 PM41 °FPassing clouds.3 mph68%29.68 "Hg28 mi
7:00 PM44 °FScattered clouds.7 mph55%29.65 "Hg31 mi
6:00 PM43 °FPartly sunny.6 mph59%29.62 "Hg31 mi
5:00 PM50 °FOvercast.12 mph39%29.56 "Hg28 mi
4:00 PM47 °FSprinkles. Partly sunny.9 mph61%29.54 "Hg25 mi
3:00 PM49 °FOvercast.10 mph46%29.50 "Hg25 mi
2:00 PM51 °FSprinkles. Partly sunny.12 mph50%29.47 "Hg37 mi
1:00 PM51 °FSprinkles. Overcast.14 mph53%29.44 "Hg37 mi
12:00 PM51 °FOvercast.10 mph60%29.41 "Hg37 mi
11:00 AM52 °FOvercast.9 mph59%29.44 "Hg37 mi
10:00 AM48 °FOvercast.8 mph62%29.44 "Hg37 mi
9:00 AM47 °FOvercast.7 mph64%29.44 "Hg37 mi
8:00 AM47 °FOvercast.7 mph64%29.44 "Hg37 mi
7:00 AM47 °FOvercast.9 mph64%29.44 "Hg37 mi
6:00 AM46 °FOvercast.7 mph77%29.44 "Hg37 mi
4:00 AM50 °FOvercast.9 mph78%29.38 "Hg37 mi
Weather by CustomWeather, © 2015

See weather overviewHow to use our weather pages